Kuchera_Ratio
0.0 0.0 0.0 0.0 0.0 0.0 0.0 0.0 0.0 3.7 0.2 0.0 0.0 0.0 0.0 0.0 0.0 0.0 0.0 0.0 0.0 0.0 0.0 0.0 0.0 0.0 0.0 0.0 0.0 0.0 0.0 0.0 0.0 0.0 0.0 0.0 0.0 0.0
0.0 0.0 0.0 0.0 0.0 0.0 0.0 0.0 0.0 0.0 2.9 0.0 0.0 0.0 0.0 0.0 0.0 0.0 0.0 0.0 0.0 0.0 0.0 0.0 0.0 0.0 0.0 0.0 0.0 0.0 0.0 0.0 0.0 0.0 0.0 0.0 0.0 0.0
0.0 0.0 0.0 0.0 0.0 0.0 0.0 0.0 0.0 0.0 1.8 0.0 0.0 0.0 0.0 0.0 0.0 0.0 0.0 0.0 0.0 0.0 0.0 0.0 0.0 0.0 0.0 0.0 0.0 0.0 0.0 0.0 0.0 0.0 0.0 0.0 0.0 0.0
0.0 0.0 0.0 0.0 0.0 0.0 0.0 0.0 0.0 0.0 0.2 2.9 0.0 0.0 0.0 0.0 0.0 0.0 0.0 0.0 0.0 0.0 0.0 0.0 0.0 0.0 0.0 0.0 0.0 0.0 0.0 0.0 0.0 0.0 0.0 0.0 0.0 0.0
0.0 0.0 0.0 0.0 0.0 0.0 0.0 0.0 0.0 0.0 0.0 1.6 2.0 0.0 0.0 0.0 0.0 0.0 0.0 0.0 0.0 0.0 0.0 0.0 0.0 0.0 0.0 0.0 0.0 0.0 0.0 0.0 0.0 0.0 0.0 0.0 0.0 0.0
0.0 0.0 0.0 0.0 0.0 0.0 0.0 0.0 0.0 0.2 0.0 1.0 1.5 2.3 2.9 0.0 0.0 0.0 1.7 0.0 0.0 0.0 0.0 0.0 0.0 0.0 0.0 0.0 0.0 0.0 0.0 0.0 0.0 0.0 0.0 0.0 0.0 0.0
0.0 0.0 0.0 0.0 0.0 0.0 0.0 0.0 0.1 2.0 3.5 5.8 6.0 5.5 3.6 1.5 2.8 1.2 3.0 1.8 1.7 0.1 0.0 0.0 0.0 0.0 0.0 0.0 0.0 0.0 0.0 0.0 0.0 0.0 0.0 0.0 0.0 0.0
0.0 0.0 0.0 0.0 0.0 0.0 0.0 0.0 0.5 6.0 8.2 7.1 7.3 6.5 4.3 2.9 1.8 3.9 7.7 9.2 11.8 0.0 1.7 3.7 0.0 0.2 0.0 0.0 0.0 0.0 0.0 0.0 0.0 0.0 0.0 0.0 0.0 0.0
0.0 0.0 0.0 0.0 0.0 0.0 0.5 0.0 0.0 0.0 0.5 2.3 5.5 4.9 5.1 3.7 7.3 9.2 7.9 8.0 8.5 3.2 4.7 8.4 1.0 2.1 0.0 0.0 0.0 0.0 0.0 0.0 0.0 0.0 0.0 0.0 0.0 0.0
0.0 0.0 0.0 0.0 0.0 0.7 1.4 4.2 3.8 1.3 0.0 0.0 1.7 2.4 2.8 3.0 3.8 4.3 6.5 8.0 5.9 3.1 2.6 12.2 3.2 5.1 0.2 0.0 0.0 0.0 0.0 0.0 0.0 0.0 0.0 0.0 0.0 0.0
0.0 0.0 0.0 0.0 0.8 0.0 3.2 7.5 3.6 1.5 0.0 0.0 0.5 0.8 0.7 0.8 2.1 6.3 10.6 12.2 12.8 9.6 4.3 8.5 6.7 7.8 6.3 5.0 0.1 0.0 0.0 0.0 0.0 0.0 0.0 0.2 0.7 0.0
0.0 0.0 0.0 0.0 0.3 1.0 3.4 3.8 6.3 4.4 4.8 5.7 2.2 1.4 1.7 2.2 2.3 4.3 7.9 13.3 13.3 14.1 6.5 11.5 11.3 11.0 13.2 4.2 2.3 1.5 0.0 0.0 0.0 0.0 0.0 0.0 0.0 2.9
1.3 0.8 0.0 0.2 0.9 1.3 2.3 4.3 5.9 4.2 5.1 4.4 5.1 4.8 4.2 4.0 3.7 4.3 6.9 12.1 13.8 13.8 7.8 10.4 12.9 12.4 13.0 12.7 7.8 5.0 3.5 2.1 0.3 0.0 0.0 0.0 0.0 0.4
3.3 1.1 0.8 1.9 2.8 3.7 4.4 5.0 4.8 4.7 6.0 7.6 9.1 9.9 9.2 9.1 8.6 8.3 9.3 10.5 10.3 12.7 10.4 11.9 13.7 13.4 13.7 13.4 12.9 5.9 4.6 3.6 3.0 3.2 3.1 1.3 0.3 0.0
2.0 1.9 2.3 3.5 4.9 5.8 5.9 6.4 6.8 6.9 8.6 11.9 12.5 12.1 10.6 10.1 11.0 11.4 10.0 9.4 10.6 10.0 9.3 9.9 12.0 12.3 12.6 13.5 13.1 10.8 9.4 6.8 4.3 5.7 4.8 5.1 5.9 5.1
2.5 3.0 3.6 5.3 6.2 6.8 6.8 6.1 6.3 7.5 10.1 12.1 12.4 11.2 10.6 11.6 12.1 10.6 12.8 12.6 13.1 12.1 8.0 7.7 8.3 10.1 12.2 10.4 10.5 12.0 8.1 10.2 4.6 5.3 5.2 5.5 3.0 4.2
4.6 5.7 7.5 8.3 9.8 9.2 8.6 8.4 8.2 8.8 11.8 12.0 12.7 12.9 12.7 12.4 12.8 11.7 12.6 12.7 14.0 14.0 12.8 8.7 6.9 7.1 7.2 9.1 12.0 7.7 6.2 6.0 5.3 6.6 7.3 6.8 4.0 3.9
9.0 10.7 11.4 11.4 12.3 12.2 12.6 12.3 11.7 11.9 12.2 12.8 13.3 13.3 13.9 14.0 13.8 12.7 12.5 13.6 14.0 13.6 13.1 11.2 9.7 9.1 7.4 5.1 0.8 5.8 5.7 6.8 6.2 6.3 6.2 7.9 6.8 3.6
12.1 12.4 13.0 12.9 13.2 13.2 13.3 13.4 13.5 12.7 13.3 13.5 13.7 13.9 13.8 13.6 13.9 14.1 13.5 13.2 13.3 12.6 12.2 9.7 10.1 11.5 12.7 13.5 5.9 0.0 7.6 7.6 7.5 6.5 4.9 7.4 8.5 6.5
12.5 13.2 13.6 13.2 13.4 13.8 13.7 13.6 13.6 13.4 13.6 13.9 13.9 13.8 14.3 14.3 14.3 14.1 13.7 14.1 13.3 12.3 11.8 9.7 9.3 9.8 12.5 12.8 12.8 9.1 4.7 7.5 7.5 8.1 7.6 6.1 3.4 0.0
13.1 13.4 13.1 13.3 13.7 13.8 13.7 13.9 14.2 14.5 14.2 14.3 14.4 14.2 13.9 14.0 14.2 13.8 13.5 12.4 11.5 12.1 12.6 11.9 8.4 3.6 7.3 7.5 10.4 7.9 4.5 1.5 3.5 7.9 7.8 8.5 9.1 7.1
13.3 13.7 13.4 13.5 14.0 14.3 14.3 14.3 14.5 14.4 14.5 14.3 14.3 14.1 13.8 13.6 13.9 13.5 12.7 12.8 12.2 11.6 11.4 8.5 7.1 7.0 8.1 10.1 11.7 10.3 7.2 3.5 1.2 1.3 1.2 5.0 9.6 12.5
13.8 13.7 13.8 14.0 14.3 14.4 14.5 14.6 14.8 14.8 14.6 14.7 14.5 14.2 13.7 13.9 12.7 12.1 11.3 10.8 10.9 10.3 11.1 12.0 8.2 6.7 8.4 8.4 9.8 9.2 9.1 7.2 5.6 5.6 3.6 2.8 3.2 3.6